sat.trackr.live / text

‹ back to catalog

KAKUSHIN RISING OBJECT B

NORAD 68793 · 2026-088B

PAYLOAD ACTIVE UNKNOWN

§ Identity

Operator
Country
JPN
Launch date
2026-04-23
Launch site
RLLB
Launch vehicle
Mass (kg)
RCS (m²)

External: N2YO · Heavens-Above · Gunter

§ Orbital elements

Epoch: 2026-09-19T20:59:55.380192Z

Period
95.52 min
Inclination
97.5202°
Eccentricity
0.0016471
Mean motion
15.07574556 rev/d
Perigee alt
532.2 km
Apogee alt
555.0 km
Semi-major
6,921.8 km
B*
1.5731e-4
RAAN
49.9130°
Arg perigee
135.4450°
Mean anomaly
224.8105°
Rev number
2,255

§ Raw data

KAKUSHIN RISING OBJECT B1 68793U 26088B   26262.87494653  .00002337  00000+0  15731-3 0  99952 68793  97.5202  49.9130 0016471 135.4450 224.8105 15.07574556 22558

JSON: /api/v1/satellites/68793 · /tle

For live sub-satellite position, see the globe view (requires WebGL).

§ Visibility from observer

Set your observer location to see the next 7 days of passes ≥ 10°. The values pass through the URL so the page stays shareable.

No JS? Fill the form by hand. The geolocation button needs JavaScript.